FW6817 Weather Reports


Display with metric or nautical units.
time (UTC)temp
F
wind
direction
speed
MPH
gust
MPH
rain 1hr
in
rain 24hr
in
rain mn
in
humidity
%
barometer
mb
20260508054558 51 0 0.0 2.0 0.00 0.48 0.00 95 1014.4
20260508054049 51 74 0.0 2.0 0.00 0.48 0.00 95 1014.4
20260508053546 52 0 0.0 2.0 0.00 0.48 0.00 95 1014.4
20260508053056 52 65 0.0 0.0 0.00 0.48 0.00 95 1014.4
20260508052545 52 0 0.0 0.0 0.00 0.48 0.00 95 1014.3
20260508052048 52 0 0.0 0.0 0.00 0.48 0.00 95 1014.4
20260508051552 52 0 0.0 0.0 0.00 0.48 0.00 95 1014.4
20260508051054 52 0 0.0 0.0 0.00 0.48 0.00 95 1014.3
20260508050551 52 0 0.0 0.0 0.00 0.48 0.00 95 1014.4
20260508050054 51 0 0.0 0.0 0.00 0.48 0.00 95 1014.3
20260508045545 52 0 0.0 0.0 0.00 0.56 0.00 94 1014.3
20260508045048 52 0 0.0 0.0 0.00 0.56 0.00 94 1014.2
20260508044603 52 0 0.0 0.0 0.00 0.56 0.00 94 1014.2
20260508044048 52 0 0.0 0.0 0.00 0.56 0.00 94 1014.2
20260508043548 52 0 0.0 0.0 0.00 0.56 0.00 94 1014.1
20260508043053 52 0 0.0 0.0 0.00 0.56 0.00 94 1013.9
20260508042545 52 0 0.0 0.0 0.00 0.56 0.00 94 1014.0
20260508042048 52 0 0.0 0.0 0.00 0.56 0.00 94 1013.9
20260508041548 52 0 0.0 0.0 0.00 0.56 0.00 94 1013.9
20260508041048 52 0 0.0 0.0 0.00 0.56 0.00 94 1013.9
20260508040547 52 0 0.0 0.0 0.00 0.56 0.00 94 1013.8
20260508040058 52 0 0.0 0.0 0.00 0.56 0.00 94 1013.8
20260508035545 52 0 0.0 0.0 0.00 0.73 0.56 94 1013.8
20260508035048 52 0 0.0 0.0 0.00 0.73 0.56 94 1013.9
20260508034555 53 0 0.0 0.0 0.00 0.73 0.56 94 1013.8
20260508034046 53 0 0.0 0.0 0.00 0.73 0.56 94 1013.8
20260508033545 53 0 0.0 0.0 0.00 0.73 0.56 94 1013.9
20260508033052 53 0 0.0 0.0 0.00 0.73 0.56 94 1013.9
20260508032546 53 0 0.0 0.0 0.00 0.73 0.56 94 1013.8
20260508032049 53 0 0.0 0.0 0.00 0.73 0.56 94 1013.7
20260508031553 53 0 0.0 0.0 0.00 0.73 0.56 94 1013.6
20260508031048 53 0 0.0 0.0 0.00 0.73 0.56 94 1013.6
20260508030548 53 0 0.0 0.0 0.00 0.73 0.56 94 1013.5
20260508025549 53 0 0.0 0.0 0.00 0.78 0.56 95 1013.7
20260508025045 54 0 0.0 1.0 0.00 0.78 0.56 94 1013.7
20260508024558 54 0 0.0 1.0 0.00 0.78 0.56 94 1013.5
20260508024046 54 0 0.0 1.0 0.00 0.78 0.56 94 1013.4
20260508023548 54 0 0.0 1.0 0.00 0.78 0.56 94 1013.1
20260508023055 54 0 0.0 1.0 0.00 0.78 0.56 94 1013.1
20260508022545 54 0 0.0 1.0 0.00 0.78 0.56 95 1013.2
20260508022048 54 0 0.0 1.0 0.00 0.78 0.56 95 1013.2
20260508021600 54 0 0.0 0.0 0.00 0.78 0.56 95 1013.1
20260508021048 54 0 0.0 1.0 0.00 0.78 0.56 95 1013.0
20260508020548 54 0 0.0 1.0 0.00 0.78 0.56 95 1013.1
20260508020055 54 0 0.0 1.0 0.00 0.78 0.56 95 1013.1
20260508015550 55 0 0.0 1.0 0.00 0.78 0.56 95 1013.1
20260508015048 55 0 0.0 1.0 0.00 0.78 0.56 95 1013.0
20260508014558 55 0 0.0 1.0 0.00 0.78 0.56 95 1012.9
20260508014045 55 0 0.0 1.0 0.00 0.78 0.56 95 1012.8
20260508013545 55 0 0.0 1.0 0.00 0.78 0.56 95 1012.7
20260508013057 55 0 0.0 3.0 0.00 0.78 0.56 95 1012.6
20260508012548 55 65 0.0 3.0 0.00 0.78 0.56 95 1012.5
20260508012048 55 0 0.0 3.0 0.00 0.78 0.56 95 1012.5
20260508011605 55 0 0.0 0.0 0.00 0.78 0.56 95 1012.4
20260508011045 55 0 0.0 0.0 0.00 0.78 0.56 95 1012.4
20260508010545 55 0 0.0 0.0 0.00 0.78 0.56 95 1012.2
20260508010057 55 0 0.0 2.0 0.00 0.78 0.56 95 1011.9
20260508005545 55 0 0.0 2.0 0.00 0.78 0.56 95 1011.7
20260508005046 55 77 0.0 3.0 0.00 0.78 0.56 95 1011.7
20260508004556 55 0 0.0 5.0 0.00 0.78 0.56 95 1011.5
20260508004046 55 55 1.0 5.0 0.00 0.78 0.56 95 1011.5
20260508003549 55 33 0.0 4.0 0.00 0.78 0.56 95 1011.5
20260508003056 55 53 1.0 4.0 0.00 0.78 0.56 95 1011.5
20260508002550 55 0 0.0 3.0 0.00 0.78 0.56 95 1011.6
20260508002046 55 46 0.0 3.0 0.00 0.78 0.56 95 1011.7
20260508001551 55 0 0.0 3.0 0.00 0.78 0.56 95 1011.7
20260508001045 55 0 1.0 3.0 0.00 0.78 0.56 95 1011.4
20260508000545 56 0 1.0 4.0 0.00 0.78 0.56 95 1011.4
20260508000050 56 0 0.0 4.0 0.00 0.78 0.56 95 1011.5
20260507235545 56 35 1.0 3.0 0.00 0.78 0.56 95 1011.4
20260507235045 56 0 0.0 2.0 0.01 0.78 0.56 95 1011.6
20260507234600 56 37 1.0 3.0 0.01 0.78 0.56 95 1011.5
20260507234048 56 0 0.0 3.0 0.01 0.78 0.56 95 1011.7
20260507233545 56 40 0.0 3.0 0.01 0.78 0.56 95 1011.6
20260507233052 56 0 0.0 3.0 0.01 0.78 0.56 95 1011.5
20260507232547 56 0 0.0 3.0 0.01 0.78 0.56 95 1011.1
20260507232044 56 0 0.0 4.0 0.01 0.78 0.56 95 1010.9
20260507231557 56 0 0.0 4.0 0.01 0.78 0.56 95 1010.8
20260507231046 56 84 0.0 2.0 0.01 0.78 0.56 95 1010.8
20260507230546 56 0 0.0 5.0 0.01 0.78 0.56 95 1010.6
20260507230059 56 129 0.0 5.0 0.01 0.78 0.56 95 1010.6
20260507225546 56 63 2.0 10.0 0.01 0.78 0.56 95 1010.5
20260507225046 56 61 1.0 10.0 0.00 0.77 0.55 95 1010.4
20260507224551 56 53 2.0 10.0 0.00 0.77 0.55 95 1010.2
20260507224048 56 73 2.0 9.0 0.00 0.77 0.55 95 1010.2
20260507223548 56 38 2.0 9.0 0.00 0.77 0.55 95 1010.3
20260507223056 56 55 2.0 9.0 0.00 0.77 0.55 95 1010.1
20260507222548 56 17 1.0 7.0 0.02 0.77 0.55 95 1010.2
20260507222045 56 44 1.0 8.0 0.05 0.77 0.55 95 1009.8
20260507221554 56 9 3.0 8.0 0.05 0.77 0.55 95 1009.8
20260507221048 56 13 0.0 5.0 0.05 0.77 0.55 95 1010.1
20260507220545 56 71 2.0 9.0 0.05 0.77 0.55 95 1009.9
20260507220056 56 34 1.0 14.0 0.05 0.77 0.55 95 1009.8
20260507215546 56 11 3.0 14.0 0.05 0.77 0.55 95 1009.8
20260507215046 56 75 2.0 10.0 0.05 0.77 0.55 94 1009.8
20260507214600 57 54 2.0 10.0 0.06 0.77 0.55 95 1009.7
20260507214048 57 34 3.0 10.0 0.06 0.77 0.55 94 1009.8
20260507213545 57 39 2.0 10.0 0.06 0.77 0.55 95 1009.9
20260507213056 57 23 2.0 10.0 0.06 0.77 0.55 95 1009.8
20260507212545 57 31 3.0 8.0 0.04 0.75 0.52 93 1009.7
20260507212048 57 92 0.0 9.0 0.01 0.72 0.50 93 1010.2
20260507211552 57 92 2.0 9.0 0.01 0.72 0.50 93 1010.1
20260507211044 57 43 1.0 7.0 0.01 0.72 0.50 93 1010.0
20260507210546 57 17 2.0 15.0 0.01 0.72 0.50 93 1009.9
20260507210056 57 23 4.0 15.0 0.01 0.72 0.50 93 1009.4
20260507205546 57 19 4.0 15.0 0.01 0.72 0.50 92 1009.3
20260507205046 57 21 3.0 8.0 0.01 0.72 0.50 92 1009.6
20260507204559 57 25 3.0 12.0 0.00 0.71 0.49 92 1009.7
20260507204045 58 57 4.0 12.0 0.00 0.71 0.49 92 1009.5
20260507203547 58 51 4.0 12.0 0.00 0.71 0.49 92 1009.5
20260507203105 58 14 3.0 10.0 0.00 0.71 0.49 93 1009.5
20260507202545 58 17 3.0 10.0 0.00 0.71 0.49 93 1009.2
20260507202048 58 34 3.0 12.0 0.00 0.71 0.49 93 1009.2
20260507201551 59 54 5.0 12.0 0.00 0.71 0.49 92 1009.1
20260507201048 59 327 3.0 12.0 0.00 0.71 0.49 92 1009.4
20260507200548 59 306 3.0 12.0 0.00 0.71 0.49 93 1009.4
20260507200056 59 28 3.0 12.0 0.00 0.71 0.49 93 1009.3
20260507195550 59 74 4.0 12.0 0.00 0.71 0.49 93 1009.0
20260507195048 59 61 3.0 12.0 0.00 0.71 0.49 93 1009.3
20260507194554 60 32 4.0 13.0 0.00 0.71 0.49 93 1009.2
20260507194046 60 37 3.0 13.0 0.00 0.71 0.49 95 1009.0
20260507193547 60 41 5.0 13.0 0.00 0.71 0.49 95 1008.8
20260507193100 60 61 2.0 10.0 0.00 0.71 0.49 95 1009.1
20260507192545 60 42 4.0 12.0 0.00 0.71 0.49 94 1009.1
20260507192045 60 46 3.0 12.0 0.00 0.71 0.49 94 1009.2
20260507191548 60 336 2.0 10.0 0.00 0.71 0.49 94 1009.5
20260507191049 61 34 2.0 8.0 0.00 0.71 0.49 94 1009.4
20260507190545 61 53 1.0 6.0 0.00 0.71 0.49 94 1009.6
20260507190057 61 64 2.0 7.0 0.00 0.71 0.49 94 1009.5
20260507185547 61 75 3.0 13.0 0.00 0.77 0.49 92 1009.3
20260507185051 63 352 3.0 13.0 0.00 0.77 0.49 92 1009.3
20260507184556 64 114 4.0 13.0 0.00 0.77 0.49 93 1009.4
20260507184046 64 331 1.0 4.0 0.00 0.77 0.49 94 1009.4
20260507183545 65 0 0.0 6.0 0.00 0.77 0.49 94 1009.3
20260507183058 65 0 2.0 8.0 0.00 0.77 0.49 94 1009.4
20260507182546 65 64 2.0 8.0 0.00 0.77 0.49 94 1009.3
20260507182046 66 305 0.0 7.0 0.00 0.77 0.49 95 1009.2
20260507181549 66 0 1.0 10.0 0.00 0.77 0.49 95 1009.2
20260507181045 66 38 2.0 10.0 0.01 0.77 0.49 95 1008.8
20260507180545 67 71 1.0 4.0 0.02 0.77 0.49 96 1008.8
20260507180053 67 0 0.0 0.0 0.02 0.77 0.49 96 1008.9
20260507175545 67 0 0.0 3.0 0.02 0.78 0.49 96 1009.0
20260507175049 67 0 0.0 3.0 0.02 0.78 0.49 96 1009.1
20260507174607 67 0 0.0 1.0 0.03 0.78 0.49 96 1009.4
20260507174047 67 0 0.0 1.0 0.03 0.78 0.49 96 1009.3
20260507173546 67 0 0.0 4.0 0.03 0.78 0.49 96 1009.0
20260507173059 67 0 1.0 4.0 0.03 0.78 0.49 96 1008.9
20260507172547 67 0 0.0 0.0 0.03 0.78 0.49 96 1009.1
20260507172045 67 0 0.0 0.0 0.08 0.78 0.49 96 1009.3
20260507171612 67 0 0.0 0.0 0.08 0.78 0.49 96 1009.4
20260507171047 66 0 0.0 0.0 0.08 0.77 0.48 96 1009.4
20260507170546 66 0 0.0 0.0 0.07 0.76 0.47 96 1009.1
20260507170057 66 0 0.0 0.0 0.07 0.76 0.47 96 1009.4
20260507165546 66 0 0.0 0.0 0.07 0.76 0.47 96 1009.6
20260507165045 66 0 0.0 0.0 0.07 0.76 0.47 96 1010.1
20260507164607 66 0 0.0 1.0 0.06 0.75 0.46 96 1009.4
20260507164048 66 0 0.0 5.0 0.06 0.75 0.46 96 1008.8
20260507163546 66 0 0.0 6.0 0.07 0.75 0.46 96 1008.7
20260507163059 66 0 0.0 6.0 0.07 0.75 0.46 96 1009.0
20260507162548 66 30 0.0 3.0 0.07 0.75 0.46 96 1008.8
20260507162047 66 0 0.0 2.0 0.02 0.70 0.41 96 1008.9
20260507161605 66 0 0.0 0.0 0.02 0.70 0.41 96 1008.9
20260507161046 66 0 0.0 1.0 0.02 0.69 0.40 96 1008.9
20260507160548 66 0 0.0 1.0 0.02 0.69 0.40 96 1009.0
20260507160058 66 0 0.0 1.0 0.02 0.69 0.40 96 1009.0
20260507155545 66 0 0.0 0.0 0.02 0.69 0.40 96 1009.2
20260507155047 66 0 0.0 0.0 0.02 0.69 0.40 96 1009.3
20260507154552 66 0 0.0 0.0 0.02 0.69 0.40 96 1009.6
20260507154047 66 0 0.0 0.0 0.03 0.69 0.40 96 1009.8
20260507153545 66 0 0.0 0.0 0.02 0.68 0.39 96 1009.8
20260507153055 66 0 0.0 0.0 0.02 0.68 0.39 96 1010.0
20260507152545 66 0 0.0 2.0 0.02 0.68 0.39 96 1010.3
20260507152051 66 0 0.0 2.0 0.03 0.68 0.39 96 1010.4
20260507151556 66 0 0.0 2.0 0.03 0.68 0.39 96 1010.7
20260507151045 66 0 0.0 2.0 0.02 0.67 0.38 96 1010.8
20260507150545 66 0 0.0 0.0 0.03 0.67 0.38 96 1010.6
20260507145545 66 0 0.0 1.0 0.03 0.67 0.38 96 1010.2
20260507145047 66 0 0.0 1.0 0.04 0.67 0.38 96 1009.8
20260507144553 66 0 0.0 0.0 0.04 0.67 0.38 96 1009.4
20260507144047 66 0 0.0 0.0 0.04 0.66 0.37 96 1009.7
20260507143546 66 0 0.0 1.0 0.04 0.66 0.37 96 1009.8
20260507143103 66 0 0.0 1.0 0.05 0.66 0.37 96 1009.8
20260507142545 65 0 0.0 0.0 0.05 0.66 0.37 96 1009.7
20260507142048 65 0 0.0 0.0 0.05 0.65 0.36 96 1009.8
20260507141558 65 0 0.0 0.0 0.05 0.65 0.36 96 1009.9
20260507141047 65 0 0.0 0.0 0.06 0.65 0.36 96 1009.6
20260507140548 65 0 0.0 0.0 0.05 0.64 0.35 96 1009.4
20260507140051 65 0 0.0 0.0 0.06 0.64 0.35 96 1009.5
20260507135546 65 0 0.0 0.0 0.06 0.64 0.35 96 1009.4
20260507135047 65 0 0.0 2.0 0.05 0.63 0.34 96 1009.2
20260507134557 65 0 0.0 2.0 0.06 0.63 0.34 96 1009.4
20260507134045 65 0 0.0 1.0 0.05 0.62 0.33 96 1009.4
20260507133546 65 0 0.0 0.0 0.05 0.62 0.33 96 1010.0
20260507133050 65 0 0.0 0.0 0.05 0.61 0.32 96 1010.0
20260507132545 65 0 0.0 0.0 0.05 0.61 0.32 96 1009.9
20260507132047 65 0 0.0 3.0 0.04 0.60 0.31 96 1010.1
20260507131558 65 0 0.0 3.0 0.04 0.60 0.31 96 1010.2
20260507131051 65 0 0.0 2.0 0.03 0.58 0.30 96 1010.3
20260507130550 65 0 0.0 4.0 0.04 0.58 0.30 96 1010.6
20260507130055 65 271 1.0 4.0 0.03 0.58 0.29 96 1010.7
20260507125545 64 320 0.0 3.0 0.03 0.58 0.29 96 1011.1
20260507125045 65 263 0.0 3.0 0.03 0.58 0.29 96 1011.2
20260507124557 64 0 1.0 3.0 0.02 0.57 0.28 96 1011.1
20260507124049 64 0 0.0 2.0 0.02 0.57 0.28 96 1010.9
20260507123547 64 0 0.0 2.0 0.02 0.57 0.28 96 1010.5
20260507123051 64 0 0.0 3.0 0.02 0.56 0.27 96 1010.3
20260507122549 64 0 0.0 3.0 0.02 0.56 0.27 96 1010.3
20260507122048 64 0 0.0 2.0 0.03 0.56 0.27 96 1010.3
20260507121556 64 0 0.0 2.0 0.03 0.56 0.27 96 1010.3
20260507121052 64 0 0.0 2.0 0.03 0.56 0.27 96 1010.4
20260507120549 64 0 0.0 1.0 0.02 0.55 0.26 96 1010.4
20260507120050 64 0 0.0 2.0 0.02 0.55 0.26 96 1010.2
20260507115550 64 0 0.0 2.0 0.02 0.55 0.26 96 1010.3
20260507115049 64 74 0.0 2.0 0.02 0.55 0.26 96 1010.4
20260507114549 64 227 0.0 1.0 0.02 0.55 0.26 96 1010.2
20260507114052 64 0 0.0 1.0 0.02 0.55 0.26 96 1009.8
20260507113550 64 0 0.0 1.0 0.02 0.55 0.26 96 1009.9
20260507113052 64 0 0.0 2.0 0.01 0.54 0.25 96 1009.9
20260507112549 64 0 0.0 2.0 0.01 0.54 0.25 96 1009.9
20260507112049 64 0 0.0 2.0 0.00 0.52 0.24 96 1010.0
20260507111553 64 0 0.0 1.0 0.00 0.52 0.24 95 1010.3
20260507111049 64 0 0.0 1.0 0.00 0.52 0.24 95 1010.4
20260507110546 64 0 0.0 1.0 0.00 0.52 0.24 95 1010.1
20260507110105 64 0 0.0 2.0 0.00 0.52 0.24 95 1010.2
20260507105545 64 0 0.0 2.0 0.00 0.52 0.24 95 1010.3
20260507105048 64 0 0.0 1.0 0.00 0.52 0.24 95 1010.3
20260507104550 64 0 0.0 2.0 0.00 0.52 0.24 95 1010.1
20260507104050 64 0 0.0 2.0 0.01 0.52 0.24 95 1010.2
20260507103549 64 0 0.0 4.0 0.01 0.52 0.24 95 1010.1
20260507103056 64 0 0.0 4.0 0.02 0.52 0.24 95 1010.2
20260507102549 64 0 0.0 1.0 0.02 0.52 0.24 95 1010.3
20260507102049 64 0 0.0 0.0 0.02 0.52 0.24 95 1010.2
20260507101551 64 0 0.0 1.0 0.02 0.52 0.24 95 1010.1
20260507101048 64 0 0.0 1.0 0.02 0.52 0.24 95 1009.9
20260507100546 64 0 0.0 2.0 0.02 0.52 0.24 95 1009.9
20260507100055 64 0 0.0 2.0 0.02 0.52 0.24 95 1010.1
20260507095549 64 0 0.0 4.0 0.02 0.52 0.24 95 1010.0
20260507095048 64 0 0.0 4.0 0.03 0.52 0.24 95 1010.1
20260507094608 64 0 0.0 4.0 0.03 0.52 0.24 95 1010.2
20260507094045 64 0 0.0 0.0 0.02 0.52 0.23 95 1009.9
20260507093545 64 0 0.0 0.0 0.02 0.52 0.23 95 1010.0
20260507093057 64 0 0.0 0.0 0.02 0.51 0.22 95 1010.1
20260507092554 64 0 0.0 0.0 0.02 0.51 0.22 94 1010.1
20260507092049 64 0 0.0 0.0 0.02 0.51 0.22 94 1010.2
20260507091618 64 0 0.0 0.0 0.02 0.51 0.22 94 1010.3
20260507091052 64 0 0.0 0.0 0.03 0.51 0.22 94 1010.2
20260507090550 64 0 0.0 0.0 0.03 0.51 0.22 94 1010.1
20260507090106 64 0 0.0 0.0 0.03 0.51 0.22 94 1010.1
20260507085552 64 0 0.0 0.0 0.04 0.51 0.22 94 1010.2
20260507085047 64 0 0.0 0.0 0.03 0.50 0.21 94 1010.1
20260507084558 64 0 0.0 0.0 0.03 0.50 0.21 94 1010.1
20260507084047 64 0 0.0 0.0 0.03 0.50 0.21 94 1010.2
20260507083546 64 0 0.0 1.0 0.03 0.50 0.21 94 1010.1
20260507083056 64 0 0.0 1.0 0.02 0.49 0.20 94 1010.2
20260507082549 64 87 0.0 1.0 0.02 0.49 0.20 94 1010.2
20260507082052 64 0 0.0 2.0 0.03 0.49 0.20 94 1010.3
20260507081555 64 0 0.0 2.0 0.03 0.49 0.20 94 1010.4
20260507081045 64 0 0.0 1.0 0.03 0.48 0.19 94 1010.6
20260507080545 64 0 0.0 1.0 0.03 0.48 0.19 94 1010.5
20260507075549 64 0 0.0 3.0 0.05 0.47 0.18 94 1010.7
20260507075048 64 0 0.0 3.0 0.07 0.47 0.18 94 1010.9
20260507074600 64 0 0.0 0.0 0.09 0.47 0.18 94 1010.9
20260507074047 64 0 0.0 0.0 0.09 0.47 0.18 94 1011.2
20260507073547 64 0 0.0 0.0 0.09 0.47 0.18 94 1011.4
20260507073053 64 0 0.0 0.0 0.09 0.47 0.18 94 1011.3
20260507072547 64 0 0.0 0.0 0.09 0.47 0.18 94 1011.0
20260507072046 64 0 0.0 0.0 0.08 0.46 0.17 94 1010.7
20260507071557 64 0 0.0 0.0 0.09 0.46 0.17 94 1010.5
20260507071047 64 0 0.0 0.0 0.08 0.45 0.16 93 1010.5
20260507070546 64 0 0.0 0.0 0.08 0.45 0.16 93 1010.7
20260507070101 64 0 0.0 0.0 0.07 0.44 0.15 94 1011.5
20260507065545 64 0 0.0 0.0 0.05 0.42 0.13 93 1011.8
20260507065048 64 0 0.0 0.0 0.02 0.39 0.10 93 1011.7
20260507064553 64 0 0.0 0.0 0.01 0.38 0.09 93 1011.9
20260507064048 64 0 0.0 1.0 0.01 0.38 0.09 93 1012.1
20260507063550 64 0 0.0 1.0 0.01 0.38 0.09 93 1012.0
20260507063054 64 0 0.0 1.0 0.01 0.38 0.09 93 1011.6
20260507062549 64 0 0.0 2.0 0.01 0.38 0.09 93 1011.5
20260507062049 64 0 0.0 2.0 0.01 0.38 0.09 93 1011.9
20260507061551 64 0 0.0 0.0 0.00 0.37 0.08 93 1012.3
20260507061046 64 0 0.0 1.0 0.00 0.37 0.08 93 1012.6
20260507060549 64 0 0.0 1.0 0.00 0.37 0.08 93 1012.4
20260507055549 64 0 0.0 2.0 0.00 0.37 0.08 93 1012.3
20260507055045 64 0 0.0 2.0 0.00 0.37 0.08 93 1012.5